CDT,Max TemperatureF,Mean TemperatureF,Min TemperatureF,Max Dew PointF,MeanDew PointF,Min DewpointF,Max Humidity, Mean Humidity, Min Humidity, Max Sea Level PressureIn, Mean Sea Level PressureIn, Min Sea Level PressureIn, Max VisibilityMiles, Mean VisibilityMiles, Min VisibilityMiles, Max Wind SpeedMPH, Mean Wind SpeedMPH, Max Gust SpeedMPH,PrecipitationIn, CloudCover, Events, WindDirDegrees
2011-9-1,90,83,77,79,77,75,100,84,62,30.08,30.03,29.98,10,10,10,16,8,20,0.01,4,Rain,107
2011-9-2,85,81,76,78,75,69,100,85,62,30.00,29.95,29.91,10,8,1,18,8,25,0.10,5,Rain,94
2011-9-3,82,78,73,79,76,72,100,96,83,29.90,29.83,29.77,10,6,0,31,15,39,3.87,7,Fog-Rain-Thunderstorm,125
2011-9-4,82,76,71,79,76,71,100,94,79,29.81,29.77,29.71,10,7,1,45,16,59,1.27,7,Rain-Thunderstorm,137
2011-9-5,83,76,67,81,77,61,100,92,76,29.76,29.62,29.49,10,7,0,45,22,54,1.26,6,Fog-Rain-Thunderstorm,187
2011-9-6,81,71,61,65,60,57,89,73,45,29.98,29.85,29.77,10,10,10,14,8,21,0.00,2,,307
2011-9-7,80,68,57,63,59,56,96,68,48,30.01,29.98,29.94,10,10,10,16,8,21,0.00,3,,7
2011-9-8,80,70,59,66,61,59,99,70,48,30.01,29.97,29.93,10,10,10,14,6,18,0.00,3,Rain,353
2011-9-9,82,70,59,64,61,57,99,70,45,30.00,29.96,29.92,10,10,10,13,5,18,0.00,0,,328
2011-9-10,84,72,60,64,61,59,98,61,45,30.04,30.01,29.97,10,10,10,12,7,,0.00,0,Rain,342
2011-9-11,86,73,61,67,62,57,94,64,40,30.12,30.07,30.02,10,10,10,12,7,,0.00,0,Rain,324
2011-9-12,90,76,63,72,66,62,98,71,40,30.14,30.08,30.01,10,10,10,12,6,,0.00,1,,332
2011-9-13,91,78,68,73,70,65,99,73,45,30.06,30.01,29.96,10,10,10,10,6,,0.00,1,,279
2011-9-14,90,80,68,74,71,66,100,70,46,30.00,29.97,29.91,10,10,10,12,5,17,0.00,1,,301
2011-9-15,88,77,65,79,75,61,94,81,66,30.04,29.97,29.93,10,10,9,17,9,24,0.03,2,Rain-Thunderstorm,277
2011-9-16,81,70,60,66,63,60,98,79,54,30.13,30.09,30.04,10,10,10,12,5,,0.00,2,,353
2011-9-17,83,74,64,74,70,64,100,84,70,30.15,30.10,30.06,10,10,10,12,7,,0.00,2,Rain,82
2011-9-18,83,76,69,73,71,67,95,80,68,30.17,30.11,30.07,10,10,10,14,7,,0.00,1,Rain,102
2011-9-19,82,75,68,73,69,64,100,81,70,30.09,30.04,29.96,10,10,10,13,8,18,0.00,3,Rain,102
2011-9-20,85,78,71,79,75,72,100,92,71,29.99,29.96,29.91,10,10,6,13,5,,0.13,5,Rain,86
2011-9-21,86,78,72,77,74,70,100,85,73,30.04,30.00,29.95,10,10,10,16,5,20,0.00,5,Rain,63
2011-9-22,80,75,70,76,73,71,100,98,84,30.09,30.02,29.96,10,8,0,26,9,32,1.96,6,Fog-Rain-Thunderstorm,65
2011-9-23,83,75,68,77,74,69,100,86,74,30.02,29.97,29.92,10,10,6,10,4,,0.06,4,Rain-Thunderstorm,36
2011-9-24,85,76,68,73,71,68,100,82,66,29.99,29.94,29.88,10,10,10,9,7,,0.00,2,Rain,5
2011-9-25,85,76,68,74,71,68,100,78,62,29.96,29.92,29.86,10,10,8,13,5,,0.00,0,,172
2011-9-26,86,78,71,77,74,72,100,89,66,29.93,29.89,29.86,10,10,10,14,4,17,0.00,3,,251
2011-9-27,88,78,69,75,72,69,100,71,58,29.99,29.93,29.88,10,10,10,16,6,20,0.00,2,Rain,317
2011-9-28,80,74,67,77,70,65,100,88,65,30.06,29.92,29.84,10,9,2,24,7,33,0.29,5,Rain-Thunderstorm,18
2011-9-29,82,72,62,70,67,63,100,79,65,29.95,29.90,29.85,10,10,10,10,5,,0.00,0,Rain,349
2011-9-30,86,74,63,67,65,62,97,77,48,29.94,29.91,29.88,10,10,10,14,7,,0.00,0,,343